640  
ASUS45 KGGW 141215  
RWRGGW  
HOURLY REGIONAL WEATHER ROUNDUP FOR NORTHEAST MONTANA  
NATIONAL WEATHER SERVICE GLASGOW MONTANA  
600 AM MDT FRI MAY 14 2021  
 
NOTE: "FAIR" INDICATES FEW OR NO CLOUDS BELOW 12,000 FEET WITH NO  
SIGNIFICANT WEATHER AND/OR S TO VISISBILITY.  
 
NORTHEAST MONTANA  
 
 
CITY SKY/WX TMP DP RH WIND PRES REMARKS
 
GLASGOW CLOUDY 49 41 74 W8 30.08S  
6HR MIN TEMP: 45; 6HR MAX TEMP: 56;  
 
PLENTYWOOD N/A 42 33 70 CALM N/A  
WOLF POINT MOCLDY 38 35 89 W3 30.08S  
JORDAN N/A 46 42 86 W5 30.08S  
WINNETT N/A 33 32 96 S1 N/A  
SIDNEY LGT RAIN 45 40 82 CALM 30.08S  
GLENDIVE LGT RAIN 47 43 86 N7 30.10R  
MALTA N/A 48 46 93 SW3 N/A  
 
FORT PECK REPORTS  
 
 
CITY SKY/WX TMP DP RH WIND PRES REMARKS
 
FORT PECK N/A 49 47 93 S5 N/A  
THE PINES N/A 49 40 71 W3 N/A  
 
SOUTHEAST MONTANA  
 
 
CITY SKY/WX TMP DP RH WIND PRES REMARKS
 
BILLINGS MOCLDY 45 40 82 SW8 30.11S  
MILES CITY PTCLDY 40 37 89 NW3 30.09S  
BAKER CLOUDY 38 33 82 CALM 30.10S  
LIVINGSTON PTCLDY 37 33 85 CALM 30.13F  
 
CENTRAL MONTANA  
 
 
CITY SKY/WX TMP DP RH WIND PRES REMARKS
 
HAVRE CLEAR 36 35 96 W6 30.12S FOG  
LEWISTOWN CLEAR 36 33 89 S6 30.13S  
GREAT FALLS CLEAR 40 36 86 S3 30.14S  
CUT BANK CLEAR 33 31 92 NW7 30.15S  
HELENA CLEAR 48 36 63 SW8 30.13F  
BUTTE PTCLDY 33 27 78 S3 30.15S  
BOZEMAN PTCLDY 42 35 76 W5 30.12S  
 
WESTERN MONTANA  
 
 
CITY SKY/WX TMP DP RH WIND PRES REMARKS
 
MISSOULA PTCLDY 40 33 76 NW5 30.10S  
KALISPELL NOT AVBL  
 
NORTH DAKOTA  
 
 
CITY SKY/WX TMP DP RH WIND PRES REMARKS
 
WILLISTON MOSUNNY 46 32 58 W9 30.07R  
DICKINSON PTCLDY 43 34 70 CALM 30.05S  
MINOT CLEAR 41 38 89 CALM 30.05S  
BISMARCK CLEAR 39 37 92 CALM 30.07R  
 
SOUTHERN SASKATCHEWAN  
 
 
CITY SKY/WX TMP DP RH WIND PRES REMARKS
 
REGINA PTCLDY 41 27 56 NE5 30.07R  
MOOSE JAW PTCLDY 36 28 75 NW7 30.07R  
ESTEVAN PTCLDY 36 30 80 N3 30.05R  
SWIFT CURRENT CLEAR 41 37 87 W9 30.08S  
 
 
 
CLICK HERE TO GO TO PREVIOUS BULLETINS.

The Nexlab MT Page Main Text Page